Regional Weather Roundup
Issued by NWS

Home | Current Version | Previous Version | Text Only | Print | Product List | Glossary On
Versions: 1 2 3 4 5 6 7 8 9 10 11 12 13 14 15 16 17 18 19 20 21 22 23 24 25 26 27
000
ASUS45 KBOU 221506
RWRCO

WEATHER ROUNDUP FOR COLORADO
NATIONAL WEATHER SERVICE DENVER/BOULDER CO
900 AM MDT TUE APR 22 2014

NOTE: "FAIR" INDICATES FEW OR NO CLOUDS BELOW 12000 FEET WITH NO
SIGNIFICANT WEATHER AND/OR OBSTRUCTIONS TO VISIBILITY.

COZ001>005-013-030-031-221600-
...NORTHWEST COLORADO...

CITY           SKY/WX    TMP DP  RH WIND       PRES   REMARKS
CRAIG          PTSUNNY   53  33  46 E13       29.98F
HAYDEN         MOSUNNY   54  30  40 E14       30.03F
MEEKER         PTSUNNY   59  34  39 VRB3      29.99F
MOUNT WERNER   MOSUNNY   46  18  31 S15G26    30.21F
STEAMBOAT SPGS MOSUNNY   44  30  58 CALM      30.03F
WALDEN         CLOUDY    46  28  49 SE7       30.10F
$$

COZ006>008-011-221600-
...WEST CENTRAL VALLEYS...

CITY           SKY/WX    TMP DP  RH WIND       PRES   REMARKS
GRAND JUNCTION CLOUDY    58  30  34 SE20      29.94F
MONTROSE       PTSUNNY   61  31  32 CALM      30.05F
EAGLE          MOSUNNY   43  30  61 CALM      30.13F
RIFLE          CLOUDY    53  31  42 E8        30.00F
DELTA          NOT AVBL
NUCLA          NOT AVBL
$$

COZ017>023-064>068-221600-
...SOUTHWEST COLORADO...

CITY           SKY/WX    TMP DP  RH WIND       PRES   REMARKS
DURANGO        PTSUNNY   52  29  41 CALM      30.17S
CORTEZ         MOSUNNY   64  34  32 SE9       30.08F
PAGOSA SPRINGS CLOUDY    54  31  41 CALM      30.23F
TELLURIDE      CLOUDY    54  27  35 SE13G22   30.20S
WOLF CREEK PAS CLOUDY    34  28  80 SW17G28   30.38F WCI  23
$$

COZ009-010-012-014-032>034-037-058>063-221600-
...CENTRAL COLORADO...

CITY           SKY/WX    TMP DP  RH WIND       PRES   REMARKS
ASPEN          MOSUNNY   56  27  32 SE16      30.10F
BUENA VISTA    MOSUNNY   46  32  59 CALM      30.19F
COPPER MTN     MOSUNNY   41  23  48 S14       30.33F
BERTHOUD PASS  FAIR      32  25  74 W21G29    30.33F WCI  20
COTTONWOOD PAS PTSUNNY   43  32  65 SE3       30.25F
GUNNISON       MOSUNNY   41  27  56 CALM      30.23F
KREMMLING      MOSUNNY   39  28  65 CALM      30.14F
LEADVILLE      SUNNY     38  27  64 CALM      30.24F
MONARCH PASS   SUNNY     36  23  60 SW29      30.43F
SALIDA         MOSUNNY   48  34  58 N5        30.25F
SUNLIGHT       CLOUDY    43  30  61 S3        30.25F
WILKERSON PASS SUNNY     37  27  65 SW10G22   30.32F
$$

COZ069>075-221600-
...SAN LUIS VALLEY/SANGRE DE CRISTO MOUNTAINS...

CITY           SKY/WX    TMP DP  RH WIND       PRES   REMARKS
ALAMOSA        MOSUNNY   51  36  56 SW3       30.21F
LA VETA PASS   PTSUNNY   41  32  70 SW9G21    30.27S
SAGUACHE       SUNNY     48  28  46 CALM      30.23F
$$

COZ035-036-038>040-221600-
...NORTHERN COLORADO FRONT RANGE...

CITY           SKY/WX    TMP DP  RH WIND       PRES   REMARKS
DENVER INTL AP PTSUNNY   64  36  35 SW18      29.99F
DMNS CITY PARK   N/A     62  35  36 SW6G12    29.98F
AURORA         PTSUNNY   61  36  39 S18       30.01F
FRONT RANGE AP NOT AVBL
ERIE MUNI ARPT MOSUNNY   53  40  60 CALM      29.99F
BOULDER MUN AP MOSUNNY   54  36  50 CALM      29.98F
CENTENNIAL     MOSUNNY   63  33  32 SW9       30.01F
BROOMFIELD     PTSUNNY   57  34  41 CALM      30.03S
FORT COLLINS   CLOUDY    46  36  66 SE3       30.00F
LONGMONT       NOT AVBL
$$

COZ041-046-047-076>085-087-088-221600-
...PIKES PEAK/PALMER DIVIDE AND SOUTHERN FOOTHILLS...

CITY           SKY/WX    TMP DP  RH WIND       PRES   REMARKS
COLO. SPRINGS  PTSUNNY   53  40  61 CALM      30.09F
A. F. ACADEMY  SUNNY     51  40  66 SW2       30.10F
ELLICOTT       NOT AVBL
FALCON         SUNNY     54  39  58 S5        30.12F
FORT CARSON    MOSUNNY   53  39  60 CALM      30.07F
LIMON          SUNNY     53  40  61 S15       30.07F
MONUMENT HILL  SUNNY     61  30  31 SW13      30.08F
TRINIDAD       MOSUNNY   64  41  42 SW18G25   30.09F
$$

COZ042>045-048>051-090-091-221600-
...NORTHEAST COLORADO...

CITY           SKY/WX    TMP DP  RH WIND       PRES   REMARKS
GREELEY ARPT   CLOUDY    48  34  57 CALM      29.99F
AKRON          MOSUNNY   59  39  47 S24G38    30.01F
BURLINGTON     SUNNY     58  28  32 S32G44    30.06F
WRAY           SUNNY     61  30  30 S23G30    30.05F
STERLING       NOT AVBL
HOLYOKE        NOT AVBL
FORT MORGAN    NOT AVBL
$$

COZ086-089-092>099-221600-
...SOUTHEAST COLORADO...

CITY           SKY/WX    TMP DP  RH WIND       PRES   REMARKS
PUEBLO         MOSUNNY   54  41  61 CALM      30.06F
LA JUNTA       SUNNY     63  45  51 S8        30.04F
LAMAR          SUNNY     65  45  48 S23G33    30.05F
SPRINGFIELD      N/A     61  47  59 S23G33    30.11F
$$



USA.gov is the U.S. government's official web portal to all federal, state and local government web resources and services.